Egegik, AK

6:59 PM AKST on February 20, 2018 (GMT -0900)
Egegik

Weather History for PAII - September, 2013

Change the Weather History Date:

Saturday, September 28, 2013

  Actual Average (PAKN) Record (PAKN)
Temperature  
Mean Temperature 42 °F -  
Max Temperature 48 °F 50 °F 63 °F (1929)
Min Temperature 37 °F 35 °F 22 °F (1994)
Degree Days  
Heating Degree Days 22    
Moisture  
Dew Point 33 °F    
Average Humidity 68    
Maximum Humidity 87    
Minimum Humidity 43    
Precipitation  
Precipitation 0.00 in - - ()
Sea Level Pressure  
Sea Level Pressure 29.50 in    
Wind  
Wind Speed 13 mph (NNW)    
Max Wind Speed 23 mph    
Max Gust Speed 33 mph    
Visibility 10 miles    
Events      
Averages and records for this station are not official NWS values.
T = Trace of Precipitation, MM = Missing Value Source: NWS Daily Summary

Daily Weather History Graph

Daily Weather History Graph

Search for Another Location

Airport or City:

Trip Planner

Search our weather history database for the weather conditions in past years. The results will help you decide how hot, cold, wet, or windy it might be!

Date:

Astronomy

Sep. 28, 2013 Rise Set
Actual Time 8:28 AM AKDT 8:10 PM AKDT
Civil Twilight 7:49 AM AKDT 8:49 PM AKDT
Nautical Twilight 7:02 AM AKDT 9:35 PM AKDT
Astronomical Twilight 6:13 AM AKDT 10:24 PM AKDT
Moon 1:19 AM AKDT (9/28) 5:36 PM AKDT (9/28)
Length of Visible Light 13h 00m
Length of Day
11h 42m
Waning Crescent, 34% of the Moon is Illuminated
Sep 28
Waning Crescent
Oct 4
New
Oct 11
First Quarter
Oct 18
Full
Oct 26
Last Quarter

Hourly Weather History & Observations

Time (AKDT) Temp. Windchill Dew Point Humidity Pressure Visibility Wind Dir Wind Speed Gust Speed Precip Events Conditions
12:16 AM 46.4 °F 40.1 °F 39.2 °F 76% 29.44 in 10.0 mi NW 15.0 mph 19.6 mph N/A   Overcast
12:36 AM 46.4 °F 40.4 °F 39.2 °F 76% 29.44 in 10.0 mi NW 13.8 mph 21.9 mph N/A   Overcast
12:56 AM 46.4 °F 39.5 °F 41.0 °F 81% 29.45 in 10.0 mi NW 17.3 mph 20.7 mph N/A   Overcast
1:16 AM 46.4 °F 40.4 °F 41.0 °F 81% 29.45 in 10.0 mi NW 13.8 mph - N/A   Overcast
1:36 AM 44.6 °F 38.1 °F 39.2 °F 81% 29.46 in 10.0 mi NW 13.8 mph 19.6 mph N/A   Overcast
1:56 AM 46.4 °F 39.5 °F 39.2 °F 76% 29.46 in 10.0 mi NW 17.3 mph 23.0 mph N/A   Overcast
2:16 AM 46.4 °F 40.4 °F 39.2 °F 76% 29.46 in 10.0 mi NW 13.8 mph 20.7 mph N/A   Overcast
2:36 AM 44.6 °F 37.8 °F 39.2 °F 81% 29.46 in 10.0 mi NW 15.0 mph - N/A   Overcast
2:56 AM 44.6 °F 38.4 °F 39.2 °F 81% 29.46 in 10.0 mi NW 12.7 mph 18.4 mph N/A   Overcast
3:16 AM 44.6 °F 38.1 °F 39.2 °F 81% 29.47 in 10.0 mi NW 13.8 mph 18.4 mph N/A   Overcast
3:36 AM 44.6 °F 38.4 °F 39.2 °F 81% 29.47 in 10.0 mi NW 12.7 mph - N/A   Overcast
3:56 AM 44.6 °F 38.1 °F 39.2 °F 81% 29.47 in 10.0 mi NW 13.8 mph 19.6 mph N/A   Overcast
4:16 AM 44.6 °F 38.1 °F 37.4 °F 76% 29.47 in 10.0 mi NNW 13.8 mph 19.6 mph N/A   Overcast
4:36 AM 44.6 °F 38.8 °F 37.4 °F 76% 29.47 in 10.0 mi NNW 11.5 mph - N/A   Overcast
4:56 AM 44.6 °F 39.2 °F 39.2 °F 81% 29.47 in 10.0 mi NNW 10.4 mph - N/A   Overcast
5:16 AM 44.6 °F 39.2 °F 39.2 °F 81% 29.47 in 10.0 mi NNW 10.4 mph - N/A   Overcast
5:36 AM 44.6 °F 40.2 °F 37.4 °F 76% 29.47 in 10.0 mi NNW 8.1 mph - N/A   Overcast
5:56 AM 42.8 °F 37.5 °F 39.2 °F 87% 29.48 in 10.0 mi NNW 9.2 mph - N/A   Overcast
6:16 AM 42.8 °F 38.6 °F 39.2 °F 87% 29.48 in 10.0 mi NNW 6.9 mph - N/A   Overcast
6:36 AM 42.8 °F 37.5 °F 39.2 °F 87% 29.48 in 10.0 mi NNW 9.2 mph - N/A   Overcast
6:56 AM 42.8 °F 37.0 °F 39.2 °F 87% 29.47 in 10.0 mi NNW 10.4 mph - N/A   Overcast
7:16 AM 42.8 °F 38.0 °F 39.2 °F 87% 29.48 in 10.0 mi North 8.1 mph - N/A   Overcast
7:36 AM 42.8 °F 38.6 °F 37.4 °F 81% 29.48 in 10.0 mi North 6.9 mph - N/A   Overcast
7:56 AM 41.0 °F 35.8 °F 37.4 °F 87% 29.48 in 10.0 mi NNW 8.1 mph - N/A   Overcast
8:16 AM 42.8 °F 38.0 °F 37.4 °F 81% 29.48 in 10.0 mi NNW 8.1 mph - N/A   Overcast
8:36 AM 42.8 °F 38.0 °F 37.4 °F 81% 29.47 in 10.0 mi NNW 8.1 mph - N/A   Overcast
8:56 AM 42.8 °F 38.6 °F 37.4 °F 81% 29.47 in 10.0 mi NNW 6.9 mph - N/A   Overcast
9:16 AM 42.8 °F 37.5 °F 37.4 °F 81% 29.46 in 10.0 mi NNW 9.2 mph - N/A   Overcast
9:36 AM 42.8 °F 37.0 °F 37.4 °F 81% 29.47 in 10.0 mi NNW 10.4 mph - N/A   Overcast
9:56 AM 41.0 °F 34.7 °F 35.6 °F 81% 29.47 in 10.0 mi NNW 10.4 mph - N/A   Mostly Cloudy
10:16 AM 41.0 °F 34.7 °F 35.6 °F 81% 29.47 in 10.0 mi NNW 10.4 mph - N/A   Partly Cloudy
10:36 AM 42.8 °F 37.0 °F 37.4 °F 81% 29.47 in 10.0 mi NNW 10.4 mph 16.1 mph N/A   Scattered Clouds
10:56 AM 42.8 °F 37.0 °F 35.6 °F 76% 29.48 in 10.0 mi North 10.4 mph - N/A   Partly Cloudy
11:16 AM 44.6 °F 37.8 °F 35.6 °F 71% 29.48 in 10.0 mi NNW 15.0 mph 20.7 mph N/A   Clear
11:36 AM 44.6 °F 37.4 °F 35.6 °F 71% 29.48 in 10.0 mi North 16.1 mph - N/A   Clear
11:56 AM 42.8 °F 36.2 °F 33.8 °F 70% 29.48 in 10.0 mi North 12.7 mph 20.7 mph N/A   Mostly Cloudy
12:16 PM 42.8 °F 35.8 °F 35.6 °F 76% 29.48 in 10.0 mi North 13.8 mph 19.6 mph N/A   Overcast
12:36 PM 44.6 °F 38.4 °F 33.8 °F 66% 29.48 in 10.0 mi NNW 12.7 mph 20.7 mph N/A   Overcast
12:56 PM 42.8 °F 35.1 °F 30.2 °F 61% 29.48 in 10.0 mi NNW 16.1 mph 24.2 mph N/A   Overcast
1:16 PM 42.8 °F 34.8 °F 30.2 °F 61% 29.48 in 10.0 mi NNW 17.3 mph 25.3 mph N/A   Overcast
1:36 PM 44.6 °F 37.2 °F 28.4 °F 53% 29.47 in 10.0 mi North 17.3 mph 25.3 mph N/A   Overcast
1:56 PM 44.6 °F 37.2 °F 26.6 °F 49% 29.47 in 10.0 mi North 17.3 mph 27.6 mph N/A   Overcast
2:16 PM 44.6 °F 37.4 °F 28.4 °F 53% 29.47 in 10.0 mi NNW 16.1 mph 24.2 mph N/A   Overcast
2:36 PM 44.6 °F 37.8 °F 28.4 °F 53% 29.47 in 10.0 mi NNW 15.0 mph 21.9 mph N/A   Overcast
2:56 PM 44.6 °F 38.1 °F 30.2 °F 57% 29.47 in 10.0 mi NNW 13.8 mph 20.7 mph N/A   Overcast
3:16 PM 46.4 °F 40.1 °F 28.4 °F 50% 29.47 in 10.0 mi NNW 15.0 mph 21.9 mph N/A   Overcast
3:36 PM 48.2 °F - 28.4 °F 46% 29.47 in 10.0 mi NNW 16.1 mph 25.3 mph N/A   Overcast
3:56 PM 46.4 °F 39.8 °F 26.6 °F 46% 29.47 in 10.0 mi NNW 16.1 mph 27.6 mph N/A   Overcast
4:16 PM 46.4 °F 39.5 °F 26.6 °F 46% 29.48 in 10.0 mi NNW 17.3 mph 24.2 mph N/A   Mostly Cloudy
4:56 PM 48.2 °F - 26.6 °F 43% 29.49 in 10.0 mi NNW 19.6 mph 27.6 mph N/A   Unknown
5:16 PM 46.4 °F 38.5 °F 24.8 °F 43% 29.49 in 10.0 mi NNW 21.9 mph 33.4 mph N/A   Partly Cloudy
5:36 PM 46.4 °F 39.2 °F 24.8 °F 43% 29.50 in 10.0 mi NNW 18.4 mph 31.1 mph N/A   Clear
5:56 PM 46.4 °F 39.0 °F 24.8 °F 43% 29.50 in - NNW 19.6 mph 28.8 mph N/A   Unknown
6:16 PM 46.4 °F 38.3 °F 26.6 °F 46% 29.51 in 10.0 mi NNW 23.0 mph 28.8 mph N/A   Clear
6:36 PM 46.4 °F 39.0 °F 24.8 °F 43% 29.51 in 10.0 mi North 19.6 mph 28.8 mph N/A   Clear
6:56 PM 44.6 °F 37.8 °F 26.6 °F 49% 29.52 in 10.0 mi NNW 15.0 mph 25.3 mph N/A   Clear
7:16 PM 44.6 °F 37.4 °F 28.4 °F 53% 29.53 in 10.0 mi NNW 16.1 mph - N/A   Clear
7:36 PM 42.8 °F 36.2 °F 26.6 °F 53% 29.53 in 10.0 mi NNW 12.7 mph 19.6 mph N/A   Clear
7:56 PM 42.8 °F 36.2 °F 28.4 °F 57% 29.54 in 10.0 mi NNW 12.7 mph - N/A   Clear
8:16 PM - - - N/A% 29.55 in - NNW 12.7 mph - N/A   Unknown
8:36 PM 42.8 °F 37.0 °F 28.4 °F 57% 29.56 in 10.0 mi NNW 10.4 mph - N/A   Overcast
8:56 PM 41.0 °F 34.7 °F 28.4 °F 61% 29.57 in 10.0 mi NNW 10.4 mph - N/A   Overcast
9:16 PM 42.8 °F 35.8 °F 30.2 °F 61% 29.57 in 10.0 mi NNW 13.8 mph 17.3 mph N/A   Overcast
9:36 PM 41.0 °F 35.2 °F 28.4 °F 61% 29.58 in 10.0 mi North 9.2 mph 18.4 mph N/A   Overcast
9:56 PM 39.2 °F 33.0 °F 28.4 °F 65% 29.59 in 10.0 mi North 9.2 mph - N/A   Overcast
10:16 PM 39.2 °F 32.5 °F 28.4 °F 65% 29.60 in 10.0 mi North 10.4 mph - N/A   Overcast
10:36 PM 37.4 °F 31.4 °F 28.4 °F 70% 29.61 in 10.0 mi North 8.1 mph - N/A   Overcast
10:56 PM 37.4 °F 30.3 °F 28.4 °F 70% 29.62 in 10.0 mi North 10.4 mph - N/A   Overcast
11:16 PM 37.4 °F 30.8 °F 28.4 °F 70% 29.63 in 10.0 mi North 9.2 mph - N/A   Overcast
11:36 PM 37.4 °F 29.3 °F 26.6 °F 65% 29.64 in 10.0 mi North 12.7 mph 17.3 mph N/A   Mostly Cloudy
11:56 PM 37.4 °F 29.8 °F 26.6 °F 65% 29.64 in 10.0 mi North 11.5 mph - N/A   Partly Cloudy